CW8998 Weather Reports


time (UTC)temp
C
wind
direction
speed
KPH
gust
KPH
rain 1hr
cm
rain 24hr
cm
rain mn
cm
humidity
%
barometer
mb
20260906191549 26 161 4.8 14.5 0.00 0.00 0.00 73 1017.8
20260906191028 26 84 4.8 17.7 0.00 0.00 0.00 72 1017.6
20260906190531 26 144 6.4 17.7 0.00 0.00 0.00 72 1017.6
20260906190054 26 90 6.4 22.5 0.00 0.00 0.00 71 1017.7
20260906185528 26 193 6.4 22.5 0.00 0.00 0.00 70 1017.4
20260906185028 27 111 4.8 16.1 0.00 0.00 0.00 69 1017.5
20260906184548 27 188 4.8 16.1 0.00 0.00 0.00 70 1017.4
20260906184028 27 88 6.4 14.5 0.00 0.00 0.00 70 1017.5
20260906183528 27 154 6.4 14.5 0.00 0.00 0.00 70 1017.7
20260906183049 27 193 4.8 17.7 0.00 0.00 0.00 69 1017.7
20260906182527 27 187 6.4 17.7 0.00 0.00 0.00 69 1017.7
20260906182028 27 182 4.8 16.1 0.00 0.00 0.00 68 1017.7
20260906181548 27 180 6.4 16.1 0.00 0.00 0.00 67 1017.6
20260906181028 28 131 6.4 16.1 0.00 0.00 0.00 67 1017.7
20260906180529 28 184 4.8 16.1 0.00 0.00 0.00 67 1017.8
20260906180050 28 192 3.2 14.5 0.00 0.00 0.00 67 1017.8
20260906175528 27 179 3.2 14.5 0.00 0.00 0.00 67 1017.8
20260906175028 27 172 4.8 16.1 0.00 0.00 0.00 68 1017.8
20260906174546 27 0 4.8 16.1 0.00 0.00 0.00 69 1017.8
20260906174029 28 111 3.2 11.3 0.00 0.00 0.00 68 1017.8
20260906173527 27 140 4.8 16.1 0.00 0.00 0.00 68 1017.8
20260906173059 27 205 4.8 16.1 0.00 0.00 0.00 70 1017.8
20260906172530 27 168 6.4 12.9 0.00 0.00 0.00 69 1017.7
20260906172027 27 153 3.2 12.9 0.00 0.00 0.00 69 1017.8
20260906171555 27 202 4.8 12.9 0.00 0.00 0.00 70 1017.7
20260906171028 27 194 3.2 12.9 0.00 0.00 0.00 70 1017.8
20260906170531 27 240 3.2 16.1 0.00 0.00 0.00 71 1017.7
20260906170044 26 109 4.8 16.1 0.00 0.00 0.00 71 1017.7
20260906165529 27 138 6.4 11.3 0.00 0.00 0.00 71 1017.9
20260906165031 26 194 4.8 16.1 0.00 0.00 0.00 72 1018.0
20260906164544 26 194 6.4 16.1 0.00 0.00 0.00 72 1018.2
20260906164028 26 205 6.4 19.3 0.00 0.00 0.00 72 1018.2
20260906163528 26 213 3.2 19.3 0.00 0.00 0.00 73 1018.3
20260906163043 26 38 8.0 19.3 0.00 0.00 0.00 73 1018.4
20260906162529 26 217 1.6 9.7 0.00 0.00 0.00 73 1018.3
20260906162028 25 127 3.2 12.9 0.00 0.00 0.00 75 1018.4
20260906161553 25 82 3.2 12.9 0.00 0.00 0.00 75 1018.6
20260906161027 25 121 4.8 12.9 0.00 0.00 0.00 75 1018.6
20260906160527 25 132 4.8 12.9 0.00 0.00 0.00 75 1018.5
20260906160049 25 205 4.8 12.9 0.00 0.00 0.00 75 1018.4
20260906155528 25 165 4.8 16.1 0.00 0.00 0.00 75 1018.4
20260906155027 25 225 4.8 16.1 0.00 0.00 0.00 75 1018.4
20260906154545 25 178 3.2 12.9 0.00 0.00 0.00 74 1018.4
20260906154028 25 145 1.6 16.1 0.00 0.00 0.00 75 1018.4
20260906153529 25 171 3.2 17.7 0.00 0.00 0.00 76 1018.5
20260906153045 25 165 8.0 22.5 0.00 0.00 0.00 76 1018.5
20260906152529 25 176 6.4 22.5 0.00 0.00 0.00 77 1018.6
20260906152027 24 189 4.8 11.3 0.00 0.00 0.00 78 1018.7
20260906151552 24 181 4.8 11.3 0.00 0.00 0.00 79 1018.7
20260906151028 23 134 1.6 9.7 0.00 0.00 0.00 80 1018.8
20260906150529 23 205 3.2 11.3 0.00 0.00 0.00 80 1018.8
20260906150048 22 162 3.2 11.3 0.00 0.00 0.00 82 1018.9
20260906145528 22 63 3.2 11.3 0.00 0.00 0.00 82 1018.9
20260906145029 22 159 3.2 12.9 0.00 0.00 0.00 83 1018.9
20260906144547 22 175 1.6 14.5 0.00 0.00 0.00 82 1018.9
20260906144030 22 161 4.8 14.5 0.00 0.00 0.00 83 1018.9
20260906143528 22 211 3.2 9.7 0.00 0.00 0.00 85 1018.9
20260906143043 21 200 3.2 11.3 0.00 0.00 0.00 86 1018.9
20260906142527 21 167 3.2 11.3 0.00 0.00 0.00 85 1018.8
20260906142028 21 168 4.8 11.3 0.00 0.00 0.00 86 1018.9
20260906141553 21 281 3.2 12.9 0.00 0.00 0.00 87 1018.7
20260906141029 21 179 3.2 12.9 0.00 0.00 0.00 89 1018.6
20260906140528 20 196 4.8 12.9 0.00 0.00 0.00 90 1018.4
20260906140053 20 170 3.2 11.3 0.00 0.00 0.00 91 1018.4
20260906135528 20 200 3.2 12.9 0.00 0.00 0.00 91 1018.4
20260906135027 20 196 4.8 14.5 0.00 0.00 0.00 92 1018.4
20260906134545 20 229 3.2 17.7 0.00 0.00 0.00 92 1018.4
20260906134028 19 74 4.8 17.7 0.00 0.00 0.00 92 1018.4
20260906133528 19 194 1.6 8.0 0.00 0.00 0.00 92 1018.4
20260906133057 19 93 3.2 9.7 0.00 0.00 0.00 93 1018.3
20260906132529 19 205 3.2 9.7 0.00 0.00 0.00 92 1018.3
20260906132028 18 132 1.6 8.0 0.00 0.00 0.00 93 1018.3
20260906131553 18 171 1.6 6.4 0.00 0.00 0.00 93 1018.4
20260906131027 18 160 1.6 6.4 0.00 0.00 0.00 92 1018.4
20260906130527 18 224 1.6 9.7 0.00 0.00 0.00 92 1018.3
20260906130114 18 219 0.0 9.7 0.00 0.00 0.00 92 1018.4
20260906125527 18 203 1.6 6.4 0.00 0.00 0.00 92 1018.2
20260906125028 18 211 1.6 11.3 0.00 0.00 0.00 92 1018.1
20260906124549 18 198 3.2 11.3 0.00 0.00 0.00 92 1018.2
20260906124028 18 201 1.6 9.7 0.00 0.00 0.00 92 1018.2
20260906123528 18 185 3.2 9.7 0.00 0.00 0.00 92 1018.1
20260906123043 18 152 3.2 9.7 0.00 0.00 0.00 92 1018.0
20260906122529 18 0 1.6 9.7 0.00 0.00 0.00 92 1018.0
20260906122029 18 243 1.6 9.7 0.00 0.00 0.00 92 1018.0
20260906121606 18 159 1.6 6.4 0.00 0.00 0.00 92 1018.0
20260906121027 18 207 1.6 8.0 0.00 0.00 0.00 92 1018.0
20260906120528 18 0 3.2 8.0 0.00 0.00 0.00 92 1017.9
20260906120044 18 147 1.6 6.4 0.00 0.00 0.00 92 1017.8
20260906115528 18 144 1.6 6.4 0.00 0.00 0.00 92 1017.8
20260906115027 18 202 1.6 8.0 0.00 0.00 0.00 92 1017.8
20260906114544 18 0 1.6 8.0 0.00 0.00 0.00 92 1017.8
20260906114028 18 163 1.6 8.0 0.00 0.00 0.00 92 1017.9
20260906113529 18 171 1.6 8.0 0.00 0.00 0.00 92 1018.0
20260906113050 18 108 0.0 6.4 0.00 0.00 0.00 92 1018.0
20260906112528 18 0 0.0 4.8 0.00 0.00 0.00 91 1018.1
20260906112028 18 155 0.0 6.4 0.00 0.00 0.00 92 1018.0
20260906111542 18 201 1.6 6.4 0.00 0.00 0.00 91 1018.2
20260906111027 18 172 0.0 4.8 0.00 0.00 0.00 92 1018.2
20260906110528 18 173 1.6 4.8 0.00 0.00 0.00 92 1018.2
20260906110052 18 0 0.0 4.8 0.00 0.00 0.00 91 1018.1
20260906105527 18 181 0.0 4.8 0.00 0.00 0.00 91 1018.2
20260906105028 18 215 0.0 4.8 0.00 0.00 0.00 91 1018.0
20260906104548 18 0 0.0 3.2 0.00 0.00 0.00 91 1018.1
20260906104028 18 183 0.0 1.6 0.00 0.00 0.00 91 1018.2
20260906103527 18 0 0.0 1.6 0.00 0.00 0.00 91 1018.2
20260906103052 18 0 0.0 3.2 0.00 0.00 0.00 91 1018.1
20260906102531 18 0 0.0 3.2 0.00 0.00 0.00 91 1018.2
20260906102028 18 0 0.0 3.2 0.00 0.00 0.00 91 1018.0
20260906101546 18 0 0.0 3.2 0.00 0.00 0.00 91 1018.0
20260906101031 18 0 0.0 3.2 0.00 0.00 0.00 91 1018.0
20260906100528 18 0 0.0 8.0 0.00 0.00 0.00 91 1018.1
20260906100052 18 0 1.6 8.0 0.00 0.00 0.00 91 1018.1
20260906095529 18 172 1.6 4.8 0.00 0.00 0.00 91 1018.0
20260906095029 18 184 1.6 6.4 0.00 0.00 0.00 91 1017.9
20260906094548 18 183 1.6 6.4 0.00 0.00 0.00 91 1017.8
20260906094028 18 0 0.0 6.4 0.00 0.00 0.00 91 1017.7
20260906093530 18 0 0.0 6.4 0.00 0.00 0.00 91 1017.7
20260906093052 18 168 0.0 8.0 0.00 0.00 0.00 91 1017.5
20260906092529 18 155 0.0 8.0 0.00 0.00 0.00 91 1017.4
20260906092029 18 207 1.6 6.4 0.00 0.00 0.00 91 1017.4
20260906091542 18 175 0.0 1.6 0.00 0.00 0.00 90 1017.3
20260906091030 18 161 0.0 6.4 0.00 0.00 0.00 90 1017.2
20260906090529 18 0 0.0 6.4 0.00 0.00 0.00 90 1017.2
20260906090055 18 148 0.0 1.6 0.00 0.00 0.00 90 1017.1
20260906085528 18 0 0.0 1.6 0.00 0.00 0.00 90 1017.2
20260906085028 18 154 0.0 3.2 0.00 0.00 0.00 90 1017.3
20260906084545 18 0 0.0 3.2 0.00 0.00 0.00 90 1017.2
20260906084029 18 0 0.0 3.2 0.00 0.00 0.00 90 1017.1
20260906083529 18 189 0.0 3.2 0.00 0.00 0.00 90 1017.1
20260906083044 19 0 0.0 1.6 0.00 0.00 0.00 89 1017.2
20260906082527 19 0 0.0 4.8 0.00 0.00 0.00 89 1017.2
20260906082029 19 0 0.0 4.8 0.00 0.00 0.00 89 1017.3
20260906081546 19 0 0.0 3.2 0.00 0.00 0.00 89 1017.3
20260906081028 19 0 0.0 1.6 0.00 0.00 0.00 88 1017.3
20260906080532 19 0 0.0 3.2 0.00 0.00 0.00 89 1017.2
20260906080056 19 0 0.0 3.2 0.00 0.00 0.00 89 1017.2
20260906075528 19 250 0.0 3.2 0.00 0.00 0.00 88 1017.2
20260906075028 20 59 0.0 4.8 0.00 0.00 0.00 88 1017.3
20260906074553 20 0 0.0 4.8 0.00 0.00 0.00 88 1017.3
20260906074027 20 344 1.6 4.8 0.00 0.00 0.00 88 1017.4
20260906073527 20 0 0.0 3.2 0.00 0.00 0.00 88 1017.4
20260906073043 20 290 0.0 4.8 0.00 0.00 0.00 88 1017.3
20260906072528 20 0 0.0 4.8 0.00 0.00 0.00 87 1017.3
20260906072029 20 0 0.0 3.2 0.00 0.00 0.00 87 1017.5
20260906071553 20 0 0.0 3.2 0.00 0.00 0.00 88 1017.5
20260906071029 20 0 0.0 3.2 0.00 0.00 0.00 87 1017.4
20260906070529 20 169 0.0 1.6 0.00 0.00 0.00 87 1017.5
20260906070055 20 0 0.0 1.6 0.00 0.00 0.00 87 1017.6
20260906065528 20 0 0.0 1.6 0.00 0.00 0.00 87 1017.7
20260906065028 20 0 0.0 1.6 0.00 0.00 0.00 87 1017.8
20260906064549 20 166 0.0 1.6 0.00 0.00 0.00 87 1017.9
20260906064027 20 28 0.0 1.6 0.00 0.00 0.00 87 1018.0
20260906063527 20 0 0.0 1.6 0.00 0.00 0.00 86 1018.1
20260906063045 20 0 0.0 1.6 0.00 0.00 0.00 87 1018.1
20260906062528 20 0 0.0 1.6 0.00 0.00 0.00 87 1018.0
20260906062027 20 0 0.0 1.6 0.00 0.00 0.00 87 1018.1
20260906061547 20 0 0.0 1.6 0.00 0.00 0.00 87 1018.0
20260906061028 20 0 0.0 1.6 0.00 0.00 0.00 87 1017.9
20260906060530 20 0 0.0 1.6 0.00 0.00 0.00 86 1017.9
20260906060100 20 0 0.0 3.2 0.00 0.00 0.00 86 1017.8
20260906055528 20 0 0.0 3.2 0.00 0.00 0.00 86 1017.7
20260906055029 20 0 0.0 1.6 0.00 0.00 0.00 86 1017.7
20260906054552 20 0 0.0 3.2 0.00 0.00 0.00 86 1017.7
20260906054029 20 182 0.0 3.2 0.00 0.00 0.00 86 1017.7
20260906053530 20 0 0.0 1.6 0.00 0.00 0.00 86 1017.8
20260906053044 20 223 0.0 3.2 0.00 0.00 0.00 86 1017.7
20260906052528 20 0 0.0 3.2 0.00 0.00 0.00 86 1017.7
20260906052029 20 0 0.0 1.6 0.00 0.00 0.00 86 1017.7
20260906051543 20 0 0.0 3.2 0.00 0.00 0.00 86 1017.7
20260906051028 20 0 0.0 3.2 0.00 0.00 0.00 86 1017.7
20260906050531 20 0 0.0 6.4 0.00 0.00 0.00 86 1017.6
20260906050049 20 0 0.0 6.4 0.00 0.00 0.00 85 1017.6
20260906045532 20 158 0.0 3.2 0.00 0.00 0.00 85 1017.6
20260906045030 20 0 0.0 3.2 0.00 0.00 0.00 85 1017.6
20260906044549 20 0 0.0 3.2 0.00 0.00 0.00 85 1017.6
20260906044031 20 171 0.0 4.8 0.00 0.00 0.00 85 1017.7
20260906043528 20 183 1.6 4.8 0.00 0.00 0.00 84 1017.7
20260906043045 20 173 1.6 8.0 0.00 0.00 0.00 84 1017.6
20260906042528 20 121 1.6 8.0 0.00 0.00 0.00 84 1017.6
20260906042028 20 0 0.0 3.2 0.00 0.00 0.00 84 1017.7
20260906041544 20 0 0.0 6.4 0.00 0.00 0.00 84 1017.7
20260906041029 21 0 0.0 6.4 0.00 0.00 0.00 83 1017.7
20260906040527 21 0 1.6 6.4 0.00 0.00 0.00 83 1017.7
20260906040046 21 0 0.0 3.2 0.00 0.00 0.00 83 1017.9
20260906035529 21 0 0.0 3.2 0.00 0.00 0.00 83 1017.9
20260906035027 21 80 0.0 3.2 0.00 0.00 0.00 83 1018.0
20260906034556 21 0 0.0 3.2 0.00 0.00 0.00 83 1018.0
20260906034027 21 0 0.0 3.2 0.00 0.00 0.00 83 1017.9
20260906033527 21 0 0.0 4.8 0.00 0.00 0.00 83 1017.9
20260906033045 21 0 1.6 4.8 0.00 0.00 0.00 83 1017.9
20260906032528 21 0 0.0 4.8 0.00 0.00 0.00 82 1018.0
20260906032032 21 76 0.0 4.8 0.00 0.00 0.00 82 1017.9
20260906031554 21 290 0.0 3.2 0.00 0.00 0.00 82 1017.9
20260906031032 21 69 0.0 3.2 0.00 0.00 0.00 82 1017.7
20260906030527 21 0 0.0 4.8 0.00 0.00 0.00 81 1017.8
20260906030053 21 0 0.0 6.4 0.00 0.00 0.00 81 1017.8
20260906025527 21 0 1.6 8.0 0.00 0.00 0.00 81 1017.9
20260906025027 21 91 1.6 8.0 0.00 0.00 0.00 81 1017.9
20260906024545 21 5 3.2 8.0 0.00 0.00 0.00 81 1018.0
20260906024027 21 5 1.6 8.0 0.00 0.00 0.00 80 1018.0
20260906023528 21 38 1.6 8.0 0.00 0.00 0.00 80 1017.9
20260906023053 21 30 1.6 8.0 0.00 0.00 0.00 80 1018.0
20260906022527 22 11 1.6 8.0 0.00 0.00 0.00 80 1017.9
20260906022029 22 47 3.2 8.0 0.00 0.00 0.00 79 1017.9
20260906021547 22 10 1.6 8.0 0.00 0.00 0.00 79 1017.9
20260906021027 22 12 3.2 8.0 0.00 0.00 0.00 79 1017.7
20260906020528 22 11 1.6 6.4 0.00 0.00 0.00 79 1017.6
20260906020052 22 37 3.2 6.4 0.00 0.00 0.00 78 1017.6
20260906015527 22 18 3.2 4.8 0.00 0.00 0.00 78 1017.5
20260906015028 22 36 0.0 8.0 0.00 0.00 0.00 78 1017.7
20260906014549 22 29 1.6 8.0 0.00 0.00 0.00 77 1017.7
20260906014028 22 5 3.2 8.0 0.00 0.00 0.00 77 1017.5
20260906013529 23 55 3.2 8.0 0.00 0.00 0.00 77 1017.4
20260906013046 23 334 1.6 8.0 0.00 0.00 0.00 76 1017.2
20260906012528 23 61 3.2 6.4 0.00 0.00 0.00 76 1017.1
20260906012028 23 0 1.6 6.4 0.00 0.00 0.00 76 1017.0
20260906011543 23 34 3.2 6.4 0.00 0.00 0.00 75 1016.6
20260906011028 23 11 1.6 6.4 0.00 0.00 0.00 75 1016.4
20260906010528 23 360 0.0 4.8 0.00 0.00 0.00 74 1016.3
20260906010050 24 0 0.0 4.8 0.00 0.00 0.00 73 1016.3
20260906005527 24 47 1.6 4.8 0.00 0.00 0.00 73 1016.2
20260906005029 25 74 0.0 4.8 0.00 0.00 0.00 72 1016.1
20260906004542 25 0 0.0 4.8 0.00 0.00 0.00 72 1015.9
20260906004028 25 0 0.0 4.8 0.00 0.00 0.00 71 1015.8
20260906003528 25 0 0.0 6.4 0.00 0.00 0.00 70 1015.8
20260906003053 26 0 0.0 6.4 0.00 0.00 0.00 69 1015.7
20260906002528 26 0 1.6 6.4 0.00 0.00 0.00 69 1015.6
20260906002029 26 0 0.0 8.0 0.00 0.00 0.00 69 1015.6
20260906001551 26 281 1.6 11.3 0.00 0.00 0.00 68 1015.4
20260906001029 26 254 3.2 11.3 0.00 0.00 0.00 68 1015.3
20260906000529 26 220 0.0 6.4 0.00 0.00 0.00 67 1015.4
20260906000049 26 244 1.6 6.4 0.00 0.00 0.00 67 1015.4
20260905235528 26 0 1.6 9.7 0.00 0.00 0.00 67 1015.5
20260905235029 26 103 3.2 11.3 0.00 0.00 0.00 67 1015.4
20260905234545 27 100 3.2 11.3 0.00 0.00 0.00 66 1015.3
20260905234028 27 140 1.6 11.3 0.00 0.00 0.00 66 1015.4
20260905233532 27 194 3.2 11.3 0.00 0.00 0.00 66 1015.4
20260905233044 27 0 1.6 8.0 0.00 0.00 0.00 66 1015.2
20260905232528 27 90 3.2 8.0 0.00 0.00 0.00 65 1015.2
20260905232028 27 319 3.2 14.5 0.00 0.00 0.00 65 1015.1
20260905231551 27 340 3.2 14.5 0.00 0.00 0.00 64 1015.1
20260905231032 27 66 6.4 14.5 0.00 0.00 0.00 64 1015.2
20260905230528 27 227 3.2 16.1 0.00 0.00 0.00 63 1015.3
20260905230045 27 80 3.2 16.1 0.00 0.00 0.00 63 1015.4
20260905225528 27 17 4.8 16.1 0.00 0.00 0.00 62 1015.5
20260905225029 28 355 3.2 17.7 0.00 0.00 0.00 63 1015.6
20260905224544 28 76 6.4 17.7 0.00 0.00 0.00 63 1015.7
20260905224028 28 14 6.4 17.7 0.00 0.00 0.00 63 1015.7
20260905223530 28 56 4.8 17.7 0.00 0.00 0.00 63 1015.7
20260905223042 28 24 9.7 19.3 0.00 0.00 0.00 63 1015.6
20260905222529 28 69 8.0 19.3 0.00 0.00 0.00 62 1015.6
20260905222029 28 88 4.8 9.7 0.00 0.00 0.00 62 1015.7
20260905221547 28 0 3.2 14.5 0.00 0.00 0.00 62 1015.6
20260905221029 28 32 6.4 14.5 0.00 0.00 0.00 62 1015.6
20260905220528 28 282 3.2 14.5 0.00 0.00 0.00 62 1015.6
20260905220045 28 67 3.2 24.1 0.00 0.00 0.00 62 1015.6
20260905215529 28 148 4.8 24.1 0.00 0.00 0.00 61 1015.6
20260905215028 28 344 4.8 20.9 0.00 0.00 0.00 61 1015.6
20260905214549 28 29 9.7 20.9 0.00 0.00 0.00 61 1015.7
20260905214030 29 74 8.0 20.9 0.00 0.00 0.00 60 1015.6
20260905213529 29 61 4.8 17.7 0.00 0.00 0.00 60 1015.7
20260905213050 29 44 6.4 17.7 0.00 0.00 0.00 60 1015.7
20260905212529 28 65 6.4 14.5 0.00 0.00 0.00 61 1015.6
20260905212028 28 85 6.4 14.5 0.00 0.00 0.00 62 1015.6
20260905211553 28 62 6.4 14.5 0.00 0.00 0.00 62 1015.6
20260905211030 29 355 3.2 17.7 0.00 0.00 0.00 62 1015.7
20260905210528 28 360 4.8 17.7 0.00 0.00 0.00 63 1015.8
20260905210044 28 56 4.8 19.3 0.00 0.00 0.00 63 1015.9
20260905205529 28 37 4.8 19.3 0.00 0.00 0.00 62 1015.9
20260905205030 28 28 6.4 19.3 0.00 0.00 0.00 62 1015.8
20260905204553 28 331 6.4 17.7 0.00 0.00 0.00 63 1015.8
20260905204029 28 80 4.8 17.7 0.00 0.00 0.00 63 1015.8
20260905203528 28 50 3.2 12.9 0.00 0.00 0.00 63 1015.9
20260905203049 28 221 1.6 17.7 0.00 0.00 0.00 64 1015.9
20260905202528 28 360 4.8 17.7 0.00 0.00 0.00 64 1016.0
20260905202032 28 28 3.2 16.1 0.00 0.00 0.00 64 1016.2
20260905201544 28 24 4.8 16.1 0.00 0.00 0.00 65 1016.4
20260905201024 28 262 6.4 17.7 0.00 0.00 0.00 65 1016.5
20260905200529 28 60 3.2 17.7 0.00 0.00 0.00 65 1016.7
20260905200048 27 40 4.8 17.7 0.00 0.00 0.00 66 1016.8
20260905195529 27 25 3.2 17.7 0.00 0.00 0.00 66 1016.8
20260905195028 27 19 3.2 17.7 0.00 0.00 0.00 67 1017.0
20260905194548 27 83 4.8 14.5 0.00 0.00 0.00 66 1017.0
20260905194028 27 0 1.6 14.5 0.00 0.00 0.00 69 1017.1
20260905193532 26 20 3.2 11.3 0.00 0.00 0.00 69 1017.1
20260905193050 26 21 3.2 16.1 0.00 0.00 0.00 70 1017.2
20260905192528 26 37 3.2 19.3 0.00 0.00 0.00 70 1017.1
20260905192029 25 76 6.4 19.3 0.00 0.00 0.00 71 1017.3